Regional Weather Roundup
Issued by NWS

Home | Current Version | Previous Version | Graphics & Text | Print | Product List | Glossary On
Versions: 1 2 3 4 5 6 7 8 9 10 11 12 13 14 15 16 17 18 19 20 21 22 23 24 25 26 27 28 29 30 31 32 33 34 35 36 37 38 39 40 41 42 43 44 45 46 47 48 49 50
000
ASUS45 KBOU 290707
RWRCO

WEATHER ROUNDUP FOR COLORADO
NATIONAL WEATHER SERVICE DENVER/BOULDER CO
100 AM MDT SAT AUG 29 2015

NOTE: "FAIR" INDICATES FEW OR NO CLOUDS BELOW 12000 FEET WITH NO
SIGNIFICANT WEATHER AND/OR OBSTRUCTIONS TO VISIBILITY.

COZ001>005-013-030-031-290800-
...NORTHWEST COLORADO...

CITY           SKY/WX    TMP DP  RH WIND       PRES   REMARKS
CRAIG          CLEAR     50  45  83 E3        30.31S
HAYDEN         NOT AVBL
MEEKER         CLEAR     54  42  64 E5        30.33R
MOUNT WERNER   NOT AVBL
STEAMBOAT SPGS CLEAR     51  44  76 CALM      30.37S
WALDEN         CLEAR     41  36  81 SE5       30.46S
$$

COZ006>008-011-290800-
...WEST CENTRAL VALLEYS...

CITY           SKY/WX    TMP DP  RH WIND       PRES   REMARKS
GRAND JUNCTION CLEAR     65  45  48 E9        30.17S
MONTROSE       CLEAR     64  46  52 SE12      30.27S
EAGLE          CLEAR     54  43  66 S3        30.39S
RIFLE          CLEAR     59  46  62 S3        30.26S
DELTA          CLEAR     64  51  62 NE5       30.23S
NUCLA          CLEAR     61  37  41 MISG      30.29S
$$

COZ017>023-064>068-290800-
...SOUTHWEST COLORADO...

CITY           SKY/WX    TMP DP  RH WIND       PRES   REMARKS
DURANGO        PTCLDY    55  46  71 N3        30.31R
CORTEZ         CLEAR     55  43  63 SE5       30.23S
PAGOSA SPRINGS PTCLDY    59  43  55 NW3       30.40S
TELLURIDE      CLEAR     53  41  65 SE7       30.51S
WOLF CREEK PAS MOCLDY    45  37  76 E8        30.74S
$$

COZ009-010-012-014-032>034-037-058>063-290800-
...CENTRAL COLORADO...

CITY           SKY/WX    TMP DP  RH WIND       PRES   REMARKS
ASPEN          CLEAR     51  42  71 SW7       30.43F
BUENA VISTA    PTCLDY    51  42  71 W7        30.49F
COPPER MTN     CLEAR     50  36  57 S15       30.74S
BERTHOUD PASS  FAIR      39  28  65 SE10      30.78F
COTTONWOOD PAS PTCLDY    55  37  50 CALM      30.62S
GUNNISON       PTCLDY    52  39  62 N7        30.47R
KREMMLING      CLEAR     46  41  81 CALM      30.46S
LEADVILLE      PTCLDY    44  37  76 NE6       30.60F
MONARCH PASS   CLEAR     43  36  75 E15       30.83S
SALIDA         PTCLDY    60  44  55 W6        30.54R
SUNLIGHT       CLEAR     50  37  62 E5        30.65F
WILKERSON PASS PTCLDY    46  36  66 SW6       30.74S
$$

COZ069>075-290800-
...SAN LUIS VALLEY/SANGRE DE CRISTO MOUNTAINS...

CITY           SKY/WX    TMP DP  RH WIND       PRES   REMARKS
ALAMOSA        PTCLDY    61  41  47 SE10      30.41R
LA VETA PASS   PTCLDY    50  37  62 MISG      30.61S
SAGUACHE       CLEAR     50  41  71 NW7       30.46S
$$

COZ035-036-038>040-290800-
...NORTHERN COLORADO FRONT RANGE...

CITY           SKY/WX    TMP DP  RH WIND       PRES   REMARKS
DENVER INTL AP PTCLDY    64  38  38 SW9       30.29S
DMNS CITY PARK   N/A     65  47  53 S6        30.28F
AURORA         PTCLDY    62  41  45 S9        30.31F
FRONT RANGE AP NOT AVBL
ERIE MUNI ARPT CLEAR     60  48  62 CALM      30.28S
BOULDER MUN AP CLEAR     68  43  40 W5        30.28S
CENTENNIAL     PTCLDY    62  43  49 SW3       30.33S
BROOMFIELD     CLEAR     64  45  48 W6        30.31F
FORT COLLINS   CLEAR     61  46  59 CALM      30.27F
LONGMONT       CLEAR     64  47  54 W5        30.29S HAZE
$$

COZ041-046-047-076>085-087-088-290800-
...PIKES PEAK/PALMER DIVIDE AND SOUTHERN FOOTHILLS...

CITY           SKY/WX    TMP DP  RH WIND       PRES   REMARKS
COLO. SPRINGS  PTCLDY    60  43  53 N7        30.37S
A. F. ACADEMY  PTCLDY    53  46  77 N8        30.38S
ELLICOTT       MOCLDY   N/A N/A N/A E7        30.33F
FALCON         PTCLDY    56  43  61 MISG      30.41F
FORT CARSON    PTCLDY    61  48  61 NW10      30.33S
LIMON          CLEAR     49  43  80 N3        30.30S
MONUMENT HILL  PTCLDY    50  41  71 S7        30.41F
TRINIDAD       PTCLDY    64  49  57 W12       30.31R
$$

COZ042>045-048>051-090-091-290800-
...NORTHEAST COLORADO...

CITY           SKY/WX    TMP DP  RH WIND       PRES   REMARKS
GREELEY ARPT   CLEAR     55  50  82 CALM      30.25F
AKRON          CLEAR     63  48  58 SE8       30.24S
BURLINGTON     CLEAR     60  52  74 S3        30.22S
WRAY           CLEAR     61  53  76 SW3       30.19R
STERLING       CLEAR     55  45  67 CALM      30.18F
HOLYOKE        CLEAR     59  52  77 W6        30.19S
FORT MORGAN    CLEAR     57  46  67 NW7       30.24S
$$

COZ086-089-092>099-290800-
...SOUTHEAST COLORADO...

CITY           SKY/WX    TMP DP  RH WIND       PRES   REMARKS
PUEBLO         PTCLDY    68  48  48 N6        30.24S
LA JUNTA       CLEAR     63  46  54 N5        30.20S
LAMAR          CLEAR     61  52  72 CALM      30.16S
SPRINGFIELD      N/A     66  52  60 NE7       30.20R
$$




USA.gov is the U.S. government's official web portal to all federal, state and local government web resources and services.